[[{"header":{"parameterUnit":"m.s-1","parameterCategory":1,"la1":30.2991,"la2":30.254,"lo1":-89.0895,"lo2":-89.0444,"dy":0.0017,"dx":0.0017,"nx":28,"ny":28,"refTime":"2024-03-19T21:00:00:Z","depth":0,"parameterNumber":2,"parameterNumberName":"U-component_of_WINDS"},"data":[0,0,0,0,0,0,0,0,0,0,0,0,0,0,0,0,0,0,0,0,0,0,0,0,0,0,0,0,0,0,0,0,0,0,0,0,0,0,0,0,0,0,0,0,0,0,0,0,0,0,0,0,0,0,0,0,0,0,-0.0562,-0.0561,0,-0.0487,-0.0487,-0.0486,-0.0442,-0.0441,-0.0441,-0.0441,-0.0365,-0.0363,-0.0361,0,0,0,0,0,0,0,0,0,0,0,0,0,-0.0667,-0.0665,-0.0562,-0.0561,-0.056,-0.0488,-0.0487,-0.0486,-0.0442,-0.0441,-0.0441,-0.0441,-0.0366,-0.0363,-0.0361,0,0,0,0,0,0,0,0,0,0,0,0,0,-0.061,-0.0664,-0.0562,-0.053,-0.0526,-0.0488,-0.0487,-0.0485,-0.0442,-0.0441,-0.0441,-0.0441,-0.0366,-0.0364,-0.0361,-0.035,0,0,-0.0353,-0.0351,0,0,0,0,0,0,0,0,-0.0613,-0.0606,-0.0535,-0.0532,-0.0528,-0.0474,-0.0495,-0.044,-0.0442,-0.0474,-0.0441,-0.0441,-0.0401,-0.0396,-0.0382,-0.0346,-0.0343,-0.0352,-0.0351,-0.0349,-0.0349,0,0,0,0,0,0,0,-0.0617,-0.0609,-0.0533,-0.0534,-0.053,-0.0519,-0.051,-0.0485,-0.044,-0.0471,-0.0468,-0.0459,-0.0399,-0.0385,-0.038,-0.0342,-0.0352,-0.035,-0.0348,-0.0347,-0.0292,-0.0293,0,0,0,0,0,0,-0.0626,-0.0612,-0.0535,-0.053,-0.057,-0.0517,-0.0508,-0.0491,-0.044,-0.0432,-0.046,-0.0457,-0.039,-0.0384,-0.0377,-0.0361,-0.0349,-0.0347,-0.0345,-0.0292,-0.0293,-0.0293,0,0,0,0,0,0,-0.0628,-0.062,-0.0538,-0.057,-0.0559,-0.0516,-0.0497,-0.049,-0.0476,-0.0432,-0.0424,-0.0453,-0.039,-0.0381,-0.0357,-0.0358,-0.0346,-0.0343,-0.0292,-0.0292,-0.0293,-0.0328,0,0,0,0,0,0,-0.0632,-0.0621,-0.0616,-0.0571,-0.0558,-0.0519,-0.0497,-0.0489,-0.0471,-0.0468,-0.0424,-0.0416,-0.0389,-0.0361,-0.0354,-0.0354,-0.0341,-0.0292,-0.0292,-0.0293,-0.0327,-0.033,-0.0332,0,0,0,0,0,-0.0636,-0.0629,-0.0616,-0.0607,-0.0551,-0.0519,-0.0511,-0.048,-0.0471,-0.0466,-0.0438,-0.0418,-0.0359,-0.0359,-0.0351,-0.035,-0.0292,-0.0292,-0.0292,-0.0326,-0.0329,-0.0332,0,0,0,0,0,0,-0.0676,-0.0623,-0.0607,-0.0586,-0.0557,-0.0512,-0.0504,-0.0485,-0.0458,-0.0456,-0.0418,-0.0408,-0.0387,-0.0366,-0.0367,-0.0336,-0.0323,-0.0322,-0.0351,-0.0354,-0.0357,-0.0363,-0.0339,0,0,0,0,0,-0.0682,-0.0661,-0.0615,-0.0601,-0.0587,-0.0548,-0.0533,-0.0511,-0.048,-0.0468,-0.0437,-0.0408,-0.0383,-0.0367,-0.0341,-0.0323,-0.0313,-0.0318,-0.0321,-0.0323,-0.0323,-0.0312,-0.0314,-0.0294,-0.0294,-0.0294,0,0,-0.0695,-0.0663,-0.0652,-0.0608,-0.0583,-0.0562,-0.0538,-0.0517,-0.0501,-0.0464,-0.044,-0.0416,-0.0381,-0.036,-0.0349,-0.0341,-0.0326,-0.0324,-0.0326,-0.0325,-0.0313,-0.0315,-0.0316,-0.0295,-0.0295,-0.0294,0,0,-0.0708,-0.0682,-0.0667,-0.0642,-0.0605,-0.0579,-0.0576,-0.0533,-0.0516,-0.049,-0.0463,-0.0443,-0.04,-0.0376,-0.0358,-0.0362,-0.0342,-0.0355,-0.0369,-0.0359,-0.036,-0.0362,-0.0363,-0.0364,-0.0354,-0.0354,-0.0354,0,-0.0729,-0.0696,-0.0662,-0.0642,-0.0623,-0.0589,-0.0574,-0.0552,-0.0508,-0.0496,-0.0488,-0.0434,-0.0408,-0.038,-0.0381,-0.0368,-0.0363,-0.036,-0.0363,-0.0364,-0.0364,-0.0366,-0.0366,-0.0356,-0.0356,-0.0356,-0.0356,0,-0.0724,-0.0701,-0.0693,-0.0652,-0.0633,-0.0615,-0.0578,-0.0563,-0.0543,-0.0518,-0.0492,-0.0459,-0.0426,-0.0418,-0.0398,-0.0388,-0.0384,-0.037,-0.0356,-0.0369,-0.0369,-0.0369,-0.0359,-0.0358,-0.0358,-0.0357,0,0,-0.076,-0.07,-0.0698,-0.0679,-0.0635,-0.0617,-0.0598,-0.0566,-0.0553,-0.0524,-0.0507,-0.0472,-0.0458,-0.0438,-0.0415,-0.0406,-0.0411,-0.0392,-0.0391,-0.0397,-0.0398,-0.041,-0.0411,-0.0398,-0.0398,-0.0397,-0.0401,0,-0.0767,-0.0732,-0.07,-0.0676,-0.0655,-0.0622,-0.0605,-0.0577,-0.0553,-0.0531,-0.0505,-0.048,-0.0464,-0.0452,-0.0441,-0.0413,-0.0411,-0.0412,-0.0382,-0.0381,-0.0393,-0.0411,-0.0423,-0.0429,-0.0401,-0.0401,-0.0401,0,-0.0771,-0.0743,-0.0717,-0.0675,-0.0665,-0.0651,-0.0619,-0.0598,-0.0565,-0.0548,-0.0526,-0.0501,-0.048,-0.0468,-0.0438,-0.0439,-0.0425,-0.0409,-0.0408,-0.0405,-0.0393,-0.0409,-0.043,-0.0431,-0.0401,-0.0401,-0.0401,0,-0.0801,-0.0757,-0.0735,-0.072,-0.0671,-0.0661,-0.064,-0.0607,-0.059,-0.0561,-0.055,-0.052,-0.0503,-0.048,-0.0449,-0.0443,-0.0422,-0.0407,-0.0408,-0.0409,-0.0405,-0.0406,-0.0425,-0.0395,-0.0395,-0.0395,-0.0395,0,-0.0812,-0.0798,-0.0748,-0.0735,-0.0718,-0.0682,-0.0666,-0.0642,-0.0612,-0.0594,-0.0563,-0.0547,-0.0506,-0.0484,-0.0459,-0.0438,-0.0431,-0.0417,-0.041,-0.042,-0.0422,-0.041,-0.0409,-0.0395,-0.0395,-0.0395,-0.0395,0,-0.0844,-0.081,-0.0785,-0.074,-0.0728,-0.0717,-0.0679,-0.0665,-0.0639,-0.0616,-0.0609,-0.0569,-0.0542,-0.0507,-0.047,-0.0453,-0.0435,-0.0425,-0.0446,-0.0443,-0.0445,-0.0446,-0.0458,-0.0458,-0.0428,-0.0428,-0.0429,0,-0.0854,-0.0842,-0.0795,-0.0781,-0.0761,-0.0738,-0.072,-0.0684,-0.0667,-0.0628,-0.0619,-0.0589,-0.0564,-0.0523,-0.049,-0.0461,-0.045,-0.0456,-0.0446,-0.0456,-0.0451,-0.0452,-0.0451,-0.0459,-0.046,-0.046,-0.0461,0,-0.0875,-0.0859,-0.0834,-0.0804,-0.0783,-0.0757,-0.073,-0.072,-0.0678,-0.0661,-0.0633,-0.0613,-0.0574,-0.0546,-0.0513,-0.0491,-0.0469,-0.0464,-0.0463,-0.0473,-0.0486,-0.0479,-0.0454,-0.0464,-0.0464,-0.0464,-0.0463,-0.0463,-0.0896,-0.0884,-0.085,-0.0823,-0.0799,-0.0774,-0.0759,-0.0731,-0.0707,-0.0673,-0.0653,-0.0626,-0.0593,-0.0546,-0.0525,-0.0503,-0.0495,-0.0493,-0.0492,-0.0493,-0.0496,-0.0489,-0.0497,-0.0497,-0.0496,-0.0496,-0.0496,0,-0.0917,-0.0893,-0.0869,-0.0832,-0.0811,-0.0792,-0.0761,-0.0745,-0.0721,-0.0692,-0.0668,-0.0636,-0.0608,-0.0573,-0.0542,-0.0532,-0.0521,-0.0525,-0.0526,-0.0521,-0.0505,-0.0509,-0.0534,-0.0534,-0.0534,-0.0534,-0.0534,-0.0534,-0.0925,-0.0903,-0.0883,-0.0849,-0.0825,-0.0799,-0.0783,-0.076,-0.0736,-0.0702,-0.0679,-0.0656,-0.0624,-0.0591,-0.0565,-0.0555,-0.0545,-0.0553,-0.054,-0.0526,-0.0522,-0.0519,-0.0523,-0.0551,-0.0551,-0.0558,-0.0558,-0.0559]},{"header":{"parameterUnit":"m.s-1","parameterCategory":1,"la1":30.2991,"la2":30.254,"lo1":-89.0895,"lo2":-89.0444,"dy":0.0017,"dx":0.0017,"nx":28,"ny":28,"refTime":"2024-03-19T21:00:00:Z","depth":0,"parameterNumber":3,"parameterNumberName":"V-component_of_WINDS"},"data":[0,0,0,0,0,0,0,0,0,0,0,0,0,0,0,0,0,0,0,0,0,0,0,0,0,0,0,0,0,0,0,0,0,0,0,0,0,0,0,0,0,0,0,0,0,0,0,0,0,0,0,0,0,0,0,0,0,0,1.8405,1.8405,0,1.8391,1.8391,1.8391,1.8349,1.8348,1.8347,1.8347,1.8332,1.8333,1.8333,0,0,0,0,0,0,0,0,0,0,0,0,0,1.8394,1.8395,1.8405,1.8405,1.8405,1.8391,1.8391,1.8391,1.8349,1.8348,1.8347,1.8346,1.8332,1.8333,1.8333,0,0,0,0,0,0,0,0,0,0,0,0,0,1.8392,1.8395,1.8405,1.8382,1.838,1.8391,1.8391,1.8391,1.835,1.8348,1.8347,1.8346,1.8332,1.8333,1.8333,1.8365,0,0,1.8336,1.8336,0,0,0,0,0,0,0,0,1.8392,1.8392,1.8386,1.8384,1.8382,1.8371,1.8382,1.8382,1.835,1.8361,1.8347,1.8345,1.8346,1.8346,1.8346,1.8365,1.8364,1.8336,1.8336,1.8336,1.8337,0,0,0,0,0,0,0,1.8392,1.8392,1.84,1.8386,1.8383,1.8372,1.8371,1.8382,1.8362,1.836,1.8357,1.8356,1.8345,1.8345,1.8345,1.8364,1.8336,1.8336,1.8337,1.8337,1.8405,1.8407,0,0,0,0,0,0,1.8395,1.8393,1.84,1.8399,1.8383,1.8374,1.8372,1.8376,1.8361,1.8358,1.8357,1.8354,1.8345,1.8345,1.8345,1.8379,1.8336,1.8337,1.8337,1.8404,1.8406,1.8407,0,0,0,0,0,0,1.8395,1.8397,1.8401,1.8395,1.8395,1.8375,1.838,1.8376,1.8377,1.8359,1.8355,1.8362,1.8344,1.8344,1.836,1.8378,1.8337,1.8338,1.8402,1.8404,1.8406,1.8451,0,0,0,0,0,0,1.8395,1.8397,1.8409,1.8396,1.8395,1.8417,1.8381,1.8377,1.8378,1.8374,1.8362,1.8359,1.8343,1.8359,1.8361,1.8379,1.8339,1.8401,1.8403,1.8406,1.8447,1.8454,1.8459,0,0,0,0,0,1.8395,1.8423,1.841,1.8411,1.841,1.8418,1.8418,1.8398,1.838,1.8392,1.838,1.836,1.8376,1.8361,1.8363,1.8381,1.8399,1.8403,1.8406,1.8445,1.8453,1.8459,0,0,0,0,0,0,1.8439,1.842,1.8406,1.8431,1.8426,1.8411,1.8425,1.8408,1.8408,1.8404,1.838,1.8378,1.8397,1.8391,1.8374,1.841,1.8384,1.8388,1.8413,1.8421,1.8427,1.8428,1.8339,0,0,0,0,0,1.8452,1.846,1.8443,1.8466,1.8464,1.8445,1.8448,1.8433,1.8427,1.8425,1.8415,1.841,1.8414,1.8417,1.842,1.8446,1.8442,1.846,1.8466,1.8471,1.8474,1.8485,1.8492,1.8417,1.8417,1.8417,0,0,1.8478,1.8468,1.8475,1.8474,1.8469,1.8477,1.8444,1.8454,1.846,1.8427,1.8441,1.8433,1.8426,1.8447,1.8456,1.8442,1.8494,1.8475,1.8479,1.8479,1.8489,1.8496,1.8503,1.842,1.8419,1.8419,0,0,1.8529,1.8523,1.8541,1.8536,1.8528,1.8515,1.8519,1.8507,1.85,1.8514,1.8489,1.8495,1.8503,1.8498,1.8497,1.8544,1.8525,1.8546,1.8577,1.8589,1.8595,1.86,1.8615,1.8621,1.8549,1.8549,1.8549,0,1.8562,1.8573,1.8552,1.8563,1.8563,1.8533,1.855,1.8547,1.854,1.854,1.8526,1.8533,1.8527,1.8545,1.8556,1.8557,1.856,1.8547,1.8596,1.86,1.8605,1.8619,1.8625,1.8552,1.8551,1.8551,1.8551,0,1.8614,1.8622,1.8637,1.8631,1.8632,1.8647,1.8627,1.8631,1.8615,1.8604,1.8617,1.8608,1.8607,1.8611,1.8596,1.8627,1.8618,1.86,1.8573,1.8615,1.8628,1.8633,1.8555,1.8554,1.8554,1.8553,0,0,1.8693,1.8674,1.868,1.8676,1.8664,1.867,1.8682,1.8681,1.8684,1.8681,1.869,1.8696,1.8678,1.8677,1.8662,1.8672,1.8708,1.8652,1.8651,1.8661,1.8738,1.8752,1.8759,1.8695,1.8696,1.8697,1.8739,0,1.874,1.876,1.874,1.8764,1.877,1.8741,1.8751,1.8745,1.8734,1.8738,1.8725,1.873,1.8707,1.8705,1.8714,1.8702,1.8723,1.8698,1.8702,1.8702,1.8704,1.8766,1.878,1.882,1.8744,1.8745,1.8745,0,1.8798,1.8797,1.8821,1.8806,1.8808,1.8817,1.8814,1.8818,1.881,1.8801,1.8798,1.8779,1.8789,1.8764,1.8776,1.876,1.876,1.8754,1.8755,1.8754,1.8726,1.8765,1.8832,1.8838,1.8753,1.8753,1.8752,0,1.8852,1.8856,1.887,1.8868,1.8851,1.8858,1.8852,1.8842,1.8842,1.8839,1.8839,1.8837,1.8836,1.8835,1.8816,1.8799,1.883,1.8803,1.8822,1.8822,1.8829,1.8829,1.8896,1.8831,1.8831,1.8831,1.8831,0,1.8906,1.8922,1.8893,1.8902,1.8918,1.8895,1.8911,1.8901,1.8893,1.8898,1.8874,1.8879,1.8854,1.8856,1.8841,1.8853,1.8853,1.8845,1.8841,1.8847,1.8848,1.8846,1.8842,1.8833,1.8832,1.8832,1.8832,0,1.8969,1.895,1.8964,1.8947,1.8943,1.8955,1.894,1.8947,1.8934,1.8941,1.8942,1.8921,1.8923,1.8903,1.8902,1.8891,1.8909,1.8901,1.8912,1.8909,1.8928,1.8926,1.8996,1.9003,1.8935,1.8936,1.8936,0,1.9004,1.9015,1.8999,1.9001,1.8995,1.8999,1.8998,1.8976,1.8976,1.8966,1.8974,1.8974,1.8972,1.8976,1.8961,1.8959,1.8949,1.8973,1.8948,1.8953,1.8947,1.8947,1.8947,1.8979,1.8979,1.898,1.8981,0,1.9068,1.9058,1.9059,1.9056,1.9056,1.9053,1.9048,1.905,1.9025,1.9027,1.9028,1.9027,1.9024,1.9024,1.9019,1.9011,1.8991,1.8989,1.8993,1.8998,1.9004,1.9,1.8925,1.8987,1.8986,1.8986,1.8986,1.8985,1.9117,1.9125,1.9114,1.9115,1.9109,1.9104,1.9109,1.9096,1.9097,1.9093,1.9079,1.9082,1.9072,1.9063,1.9057,1.9058,1.9046,1.9052,1.9054,1.9055,1.9058,1.9004,1.9058,1.9057,1.9057,1.9057,1.9057,0,1.9179,1.917,1.9171,1.9164,1.9165,1.9146,1.9139,1.914,1.9144,1.9136,1.9134,1.9135,1.9133,1.9118,1.9114,1.9118,1.9109,1.9118,1.9117,1.9115,1.907,1.9066,1.9125,1.9125,1.9125,1.9125,1.9125,1.9125,1.9211,1.9222,1.9211,1.9218,1.9209,1.9212,1.9209,1.9205,1.9198,1.9199,1.9198,1.9188,1.9176,1.9171,1.9169,1.9164,1.9163,1.9175,1.9167,1.9125,1.9119,1.9112,1.9109,1.9176,1.9176,1.9212,1.9213,1.9213]}]]